星链-34507 (STARLINK-34507)

导读 | 豆包AI

STARLINK-34507是美国SpaceX星链互联网星座的一员,于2025年6月17日发射入轨。星链项目旨在为全球提供低延迟、高速率的卫星宽带互联网覆盖,该卫星承担着扩展星座服务范围、增强网络容量的任务,推动全球偏远地区与网络基础设施薄弱区域接入互联网,助力全球互联网络覆盖进一步完善。

Basic Information
目录编号:
64437
目录名称:
STARLINK-34507
国际标识:
2025-129AB
轨道中心:
EARTH
卫星名称:
星链-34507
卫星全名:
星链-34507 (STARLINK-34507)
卫星状态:
在轨 (已飞行316 天)
发射日期:
2025-06-17 UTC
国别 :
美国 (US)
星等 :
--
Orbit Information
数据来源 国际轨道数据 AOE轨道数据
星历时间 2026-04-29T13:58:22+0800
9小时前
查看轨道信息
2026-04-27T17:00:00+0800
2天前
查看轨道信息
半长轴 6950.185km 6950.187km
偏心率 0.0002686 0.0002513
轨道倾角 70.001° 70.003°
近地点辐角 266.996° 272.237°
升交点赤经 306.853° 311.578°
平近点角 93.089° 63.127°
近地点 570.181km 570.303km
远地点 573.915km 573.797km
周期 96.107分钟 96.107分钟
每日圈数 14.983327 14.983321
Detailed Information
固有亮度:
5
最大亮度:
2.5
卫星平台:
Starlink V1.0
覆盖范围:
全球
运营商:
太空探索技术公司
运营商所在国:
美国
制造商(研发单位):
太空探索技术公司
制造商所在国:
美国
使用方式:
暂无
Satellite Introduction
Starlink 计划是 SpaceX 推出的全球卫星互联网项目,通过发射低轨道卫星,为全球尤其是偏远地区提供高速、低延迟的互联网服务。自 2019 年起,Starlink 已部署数千颗卫星,旨在缩小全球数字鸿沟,推动互联网普及。该项目还为军事、航空等行业提供通信支持,带来广泛经济效益。
2D Orbit Map
3D Orbit Map
Orbit Altitude Analysis Chart
Orbit Inclination Analysis Chart
Orbit Comprehensive Analysis Chart
View Comprehensive Chart